Location: Gülübeli Geçidi
(36.8411°N, 29.7411°E)
Time: 10:22:37
(UTC+00:00)

GEOS 3 Rocket - Pass Details

Date: 15 May 2026
Orbit: 767 x 846 km, 115.0° (Epoch: 5 June)

Event Time Altitude Azimuth Distance (km) Brightness Sun altitude
Exits shadow 18:41:51 28° 151° (SSE) 1,504 4.5 -17.6°
Maximum altitude 18:44:45 82° 236° (WSW) 844 3.7 -18.0°
Drops below altitude 10° 18:50:08 10° 325° (NW) 2,460 7.3 -18.8°
Sets 18:52:28 0° 326° (NW) 3,404 8.4 -19.2°
